| time (UTC) | temp C | wind direction | speed KPH | gust KPH | rain 1hr cm | rain 24hr cm | rain mn cm | humidity % | barometer mb |
| 20260507204505 | 18 | 92 | 1.6 | 11.3 | 0.00 | 0.00 | 0.00 | 39 | 1009.6 |
| 20260507204002 | 18 | 86 | 4.8 | 14.5 | 0.00 | 0.00 | 0.00 | 36 | 1009.7 |
| 20260507203500 | 18 | 149 | 1.6 | 4.8 | 0.00 | 0.00 | 0.00 | 38 | 1009.7 |
| 20260507202956 | 18 | 185 | 6.4 | 11.3 | 0.00 | 0.00 | 0.00 | 40 | 1009.5 |
| 20260507202453 | 19 | 159 | 12.9 | 14.5 | 0.00 | 0.00 | 0.00 | 37 | 1009.7 |
| 20260507201949 | 18 | 149 | 8.0 | 12.9 | 0.00 | 0.00 | 0.00 | 38 | 1009.6 |
| 20260507201444 | 19 | 248 | 3.2 | 6.4 | 0.00 | 0.00 | 0.00 | 37 | 1009.6 |
| 20260507200941 | 18 | 284 | 3.2 | 4.8 | 0.00 | 0.00 | 0.00 | 38 | 1009.7 |
| 20260507200436 | 19 | 177 | 12.9 | 14.5 | 0.00 | 0.00 | 0.00 | 39 | 1009.8 |
| 20260507195933 | 19 | 160 | 4.8 | 4.8 | 0.00 | 0.00 | 0.00 | 41 | 1009.7 |
| 20260507195431 | 19 | 117 | 1.6 | 6.4 | 0.00 | 0.00 | 0.00 | 39 | 1010.1 |
| 20260507194928 | 18 | 154 | 6.4 | 11.3 | 0.00 | 0.00 | 0.00 | 40 | 1010.0 |
| 20260507194424 | 18 | 151 | 8.0 | 12.9 | 0.00 | 0.00 | 0.00 | 41 | 1009.9 |
| 20260507193920 | 18 | 141 | 9.7 | 14.5 | 0.00 | 0.00 | 0.00 | 41 | 1010.0 |
| 20260507193418 | 19 | 62 | 11.3 | 14.5 | 0.00 | 0.00 | 0.00 | 39 | 1010.3 |
| 20260507192914 | 18 | 15 | 3.2 | 4.8 | 0.00 | 0.00 | 0.00 | 38 | 1010.4 |
| 20260507192410 | 19 | 317 | 3.2 | 3.2 | 0.00 | 0.00 | 0.00 | 38 | 1010.4 |
| 20260507191907 | 18 | 188 | 3.2 | 4.8 | 0.00 | 0.00 | 0.00 | 39 | 1010.6 |
| 20260507191403 | 18 | 176 | 4.8 | 6.4 | 0.00 | 0.00 | 0.00 | 38 | 1010.7 |
| 20260507190859 | 18 | 130 | 3.2 | 6.4 | 0.00 | 0.00 | 0.00 | 37 | 1010.6 |
| 20260507190358 | 17 | 78 | 4.8 | 14.5 | 0.00 | 0.00 | 0.00 | 40 | 1010.8 |
| 20260507185856 | 17 | 48 | 6.4 | 14.5 | 0.00 | 0.00 | 0.00 | 41 | 1010.9 |
| 20260507185353 | 17 | 94 | 3.2 | 11.3 | 0.00 | 0.00 | 0.00 | 45 | 1011.0 |
| 20260507184850 | 18 | 66 | 6.4 | 12.9 | 0.00 | 0.00 | 0.00 | 38 | 1010.9 |
| 20260507184348 | 18 | 3 | 3.2 | 9.7 | 0.00 | 0.00 | 0.00 | 38 | 1010.9 |
| 20260507183844 | 18 | 16 | 8.0 | 9.7 | 0.00 | 0.00 | 0.00 | 39 | 1011.0 |
| 20260507183342 | 17 | 294 | 3.2 | 11.3 | 0.00 | 0.00 | 0.00 | 42 | 1011.1 |
| 20260507182839 | 17 | 356 | 8.0 | 12.9 | 0.00 | 0.00 | 0.00 | 44 | 1010.9 |
| 20260507182335 | 17 | 56 | 6.4 | 9.7 | 0.00 | 0.00 | 0.00 | 44 | 1011.2 |
| 20260507181831 | 17 | 37 | 1.6 | 6.4 | 0.00 | 0.00 | 0.00 | 46 | 1011.2 |
| 20260507181327 | 17 | 121 | 3.2 | 6.4 | 0.00 | 0.00 | 0.00 | 39 | 1011.4 |
| 20260507180825 | 17 | 98 | 0.0 | 3.2 | 0.00 | 0.00 | 0.00 | 44 | 1011.2 |
| 20260507180321 | 17 | 19 | 4.8 | 11.3 | 0.00 | 0.00 | 0.00 | 46 | 1011.4 |
| 20260507175817 | 17 | 321 | 6.4 | 11.3 | 0.00 | 0.00 | 0.00 | 40 | 1011.5 |
| 20260507175314 | 17 | 39 | 11.3 | 24.1 | 0.00 | 0.00 | 0.00 | 41 | 1011.5 |
| 20260507174811 | 16 | 56 | 3.2 | 9.7 | 0.00 | 0.00 | 0.00 | 42 | 1011.7 |
| 20260507174309 | 17 | 44 | 6.4 | 9.7 | 0.00 | 0.00 | 0.00 | 40 | 1011.9 |
| 20260507173806 | 16 | 102 | 3.2 | 6.4 | 0.00 | 0.00 | 0.00 | 40 | 1012.1 |
| 20260507173303 | 16 | 357 | 8.0 | 9.7 | 0.00 | 0.00 | 0.00 | 42 | 1012.0 |
| 20260507172759 | 16 | 28 | 12.9 | 20.9 | 0.00 | 0.00 | 0.00 | 41 | 1012.2 |
| 20260507172256 | 16 | 56 | 14.5 | 17.7 | 0.00 | 0.00 | 0.00 | 41 | 1012.2 |
| 20260507171752 | 17 | 14 | 9.7 | 25.7 | 0.00 | 0.00 | 0.00 | 43 | 1012.2 |
| 20260507171249 | 16 | 94 | 0.0 | 4.8 | 0.00 | 0.00 | 0.00 | 42 | 1012.3 |
| 20260507170746 | 16 | 263 | 0.0 | 4.8 | 0.00 | 0.00 | 0.00 | 47 | 1012.3 |
| 20260507170243 | 16 | 52 | 9.7 | 12.9 | 0.00 | 0.00 | 0.00 | 45 | 1012.6 |
| 20260507165738 | 15 | 103 | 1.6 | 9.7 | 0.00 | 0.00 | 0.00 | 46 | 1012.5 |
| 20260507165235 | 15 | 34 | 3.2 | 14.5 | 0.00 | 0.00 | 0.00 | 40 | 1012.6 |
| 20260507164731 | 16 | 55 | 8.0 | 12.9 | 0.00 | 0.00 | 0.00 | 44 | 1012.7 |
| 20260507164228 | 16 | 35 | 14.5 | 16.1 | 0.00 | 0.00 | 0.00 | 41 | 1012.9 |
| 20260507163725 | 15 | 19 | 9.7 | 16.1 | 0.00 | 0.00 | 0.00 | 44 | 1012.8 |
| 20260507163223 | 15 | 298 | 6.4 | 9.7 | 0.00 | 0.00 | 0.00 | 45 | 1012.8 |
| 20260507162719 | 16 | 13 | 4.8 | 16.1 | 0.00 | 0.00 | 0.00 | 44 | 1012.9 |
| 20260507162215 | 16 | 351 | 6.4 | 16.1 | 0.00 | 0.00 | 0.00 | 42 | 1012.9 |
| 20260507161712 | 16 | 27 | 14.5 | 17.7 | 0.00 | 0.00 | 0.00 | 40 | 1013.2 |
| 20260507161208 | 15 | 63 | 6.4 | 12.9 | 0.00 | 0.00 | 0.00 | 46 | 1013.2 |
| 20260507160704 | 15 | 346 | 1.6 | 14.5 | 0.00 | 0.00 | 0.00 | 44 | 1013.3 |
| 20260507160201 | 15 | 73 | 9.7 | 14.5 | 0.00 | 0.00 | 0.00 | 42 | 1013.2 |
| 20260507155656 | 15 | 44 | 9.7 | 12.9 | 0.00 | 0.00 | 0.00 | 45 | 1013.4 |
| 20260507155153 | 15 | 337 | 9.7 | 11.3 | 0.00 | 0.00 | 0.00 | 44 | 1013.0 |
| 20260507154650 | 15 | 346 | 14.5 | 17.7 | 0.00 | 0.00 | 0.00 | 49 | 1013.4 |
| 20260507154148 | 15 | 70 | 9.7 | 12.9 | 0.00 | 0.00 | 0.00 | 42 | 1013.4 |
| 20260507153644 | 14 | 39 | 9.7 | 14.5 | 0.00 | 0.00 | 0.00 | 41 | 1013.4 |
| 20260507153140 | 14 | 44 | 12.9 | 16.1 | 0.00 | 0.00 | 0.00 | 47 | 1013.3 |
| 20260507152637 | 14 | 45 | 17.7 | 25.7 | 0.00 | 0.00 | 0.00 | 47 | 1013.6 |
| 20260507152132 | 14 | 19 | 8.0 | 12.9 | 0.00 | 0.00 | 0.00 | 49 | 1013.4 |
| 20260507151629 | 14 | 36 | 12.9 | 16.1 | 0.00 | 0.00 | 0.00 | 43 | 1013.5 |
| 20260507151126 | 15 | 59 | 14.5 | 16.1 | 0.00 | 0.00 | 0.00 | 45 | 1013.7 |
| 20260507150623 | 14 | 55 | 12.9 | 16.1 | 0.00 | 0.00 | 0.00 | 50 | 1013.8 |
| 20260507150120 | 14 | 27 | 8.0 | 12.9 | 0.00 | 0.00 | 0.00 | 52 | 1014.0 |
| 20260507145615 | 14 | 14 | 8.0 | 20.9 | 0.00 | 0.00 | 0.00 | 48 | 1014.0 |
| 20260507145113 | 14 | 50 | 6.4 | 14.5 | 0.00 | 0.00 | 0.00 | 46 | 1014.3 |
| 20260507144613 | 14 | 20 | 8.0 | 14.5 | 0.00 | 0.00 | 0.00 | 51 | 1014.3 |
| 20260507144112 | 14 | 338 | 6.4 | 9.7 | 0.00 | 0.00 | 0.00 | 51 | 1014.3 |
| 20260507143608 | 15 | 69 | 12.9 | 14.5 | 0.00 | 0.00 | 0.00 | 49 | 1014.4 |
| 20260507143106 | 14 | 50 | 9.7 | 14.5 | 0.00 | 0.00 | 0.00 | 51 | 1014.4 |
| 20260507142601 | 13 | 324 | 11.3 | 14.5 | 0.00 | 0.00 | 0.00 | 51 | 1014.3 |
| 20260507142058 | 13 | 21 | 11.3 | 12.9 | 0.00 | 0.00 | 0.00 | 55 | 1014.7 |
| 20260507141554 | 13 | 31 | 4.8 | 11.3 | 0.00 | 0.00 | 0.00 | 53 | 1014.4 |
| 20260507141051 | 13 | 26 | 9.7 | 14.5 | 0.00 | 0.00 | 0.00 | 51 | 1014.5 |
| 20260507140547 | 13 | 346 | 8.0 | 16.1 | 0.00 | 0.00 | 0.00 | 52 | 1014.8 |
| 20260507140045 | 13 | 14 | 8.0 | 12.9 | 0.00 | 0.00 | 0.00 | 52 | 1014.8 |
| 20260507135542 | 13 | 7 | 9.7 | 12.9 | 0.00 | 0.00 | 0.00 | 54 | 1014.7 |
| 20260507135039 | 12 | 2 | 9.7 | 12.9 | 0.00 | 0.00 | 0.00 | 53 | 1014.9 |
| 20260507134536 | 12 | 44 | 19.3 | 22.5 | 0.00 | 0.00 | 0.00 | 52 | 1014.9 |
| 20260507134031 | 12 | 35 | 8.0 | 11.3 | 0.00 | 0.00 | 0.00 | 56 | 1014.9 |
| 20260507133528 | 12 | 78 | 4.8 | 9.7 | 0.00 | 0.00 | 0.00 | 54 | 1015.0 |
| 20260507133026 | 12 | 26 | 6.4 | 11.3 | 0.00 | 0.00 | 0.00 | 54 | 1015.1 |
| 20260507132522 | 12 | 359 | 9.7 | 12.9 | 0.00 | 0.00 | 0.00 | 57 | 1015.1 |
| 20260507132018 | 12 | 13 | 6.4 | 11.3 | 0.00 | 0.00 | 0.00 | 56 | 1015.2 |
| 20260507131516 | 11 | 10 | 9.7 | 12.9 | 0.00 | 0.00 | 0.00 | 56 | 1014.9 |
| 20260507131013 | 11 | 38 | 9.7 | 11.3 | 0.00 | 0.00 | 0.00 | 55 | 1015.0 |
| 20260507130509 | 12 | 31 | 9.7 | 14.5 | 0.00 | 0.00 | 0.00 | 54 | 1015.1 |
| 20260507130008 | 12 | 32 | 8.0 | 11.3 | 0.00 | 0.00 | 0.00 | 56 | 1015.0 |
| 20260507125506 | 12 | 29 | 6.4 | 11.3 | 0.00 | 0.00 | 0.00 | 58 | 1015.1 |
| 20260507125003 | 12 | 41 | 9.7 | 11.3 | 0.00 | 0.00 | 0.00 | 57 | 1015.0 |
| 20260507124459 | 11 | 28 | 6.4 | 14.5 | 0.00 | 0.00 | 0.00 | 58 | 1015.1 |
| 20260507123957 | 11 | 31 | 9.7 | 14.5 | 0.00 | 0.00 | 0.00 | 57 | 1014.9 |
| 20260507123455 | 11 | 9 | 9.7 | 14.5 | 0.00 | 0.00 | 0.00 | 59 | 1014.9 |
| 20260507122951 | 11 | 14 | 8.0 | 11.3 | 0.00 | 0.00 | 0.00 | 59 | 1015.1 |
| 20260507122446 | 11 | 36 | 11.3 | 12.9 | 0.00 | 0.00 | 0.00 | 58 | 1014.9 |
| 20260507121943 | 11 | 19 | 4.8 | 6.4 | 0.00 | 0.00 | 0.00 | 62 | 1014.9 |
| 20260507121438 | 11 | 42 | 6.4 | 11.3 | 0.00 | 0.00 | 0.00 | 61 | 1015.1 |
| 20260507120935 | 11 | 20 | 4.8 | 4.8 | 0.00 | 0.00 | 0.00 | 63 | 1014.8 |
| 20260507120431 | 11 | 33 | 3.2 | 6.4 | 0.00 | 0.00 | 0.00 | 63 | 1014.9 |
| 20260507115928 | 11 | 20 | 4.8 | 6.4 | 0.00 | 0.00 | 0.00 | 65 | 1014.9 |
| 20260507115424 | 11 | 350 | 4.8 | 6.4 | 0.00 | 0.00 | 0.00 | 65 | 1014.9 |
| 20260507114920 | 11 | 42 | 6.4 | 6.4 | 0.00 | 0.00 | 0.00 | 64 | 1014.9 |
| 20260507114417 | 11 | 30 | 3.2 | 6.4 | 0.00 | 0.00 | 0.00 | 65 | 1015.0 |
| 20260507113914 | 11 | 10 | 3.2 | 6.4 | 0.00 | 0.00 | 0.00 | 66 | 1014.7 |
| 20260507113411 | 11 | 12 | 6.4 | 6.4 | 0.00 | 0.00 | 0.00 | 63 | 1014.6 |
| 20260507112908 | 11 | 12 | 4.8 | 4.8 | 0.00 | 0.00 | 0.00 | 65 | 1014.6 |
| 20260507112406 | 11 | 12 | 3.2 | 4.8 | 0.00 | 0.00 | 0.00 | 66 | 1014.6 |
| 20260507111904 | 11 | 12 | 3.2 | 4.8 | 0.00 | 0.00 | 0.00 | 66 | 1014.8 |
| 20260507111400 | 11 | 12 | 1.6 | 3.2 | 0.00 | 0.00 | 0.00 | 65 | 1014.8 |
| 20260507110856 | 11 | 12 | 1.6 | 3.2 | 0.00 | 0.00 | 0.00 | 66 | 1014.9 |
| 20260507110352 | 11 | 12 | 1.6 | 3.2 | 0.00 | 0.00 | 0.00 | 64 | 1014.6 |
| 20260507105849 | 11 | 12 | 3.2 | 3.2 | 0.00 | 0.00 | 0.00 | 66 | 1014.6 |
| 20260507105345 | 11 | 12 | 1.6 | 1.6 | 0.00 | 0.00 | 0.00 | 67 | 1014.5 |
| 20260507104842 | 11 | 12 | 1.6 | 3.2 | 0.00 | 0.00 | 0.00 | 67 | 1014.5 |
| 20260507104339 | 11 | 12 | 1.6 | 3.2 | 0.00 | 0.00 | 0.00 | 67 | 1014.5 |
| 20260507103835 | 11 | 13 | 3.2 | 4.8 | 0.00 | 0.00 | 0.00 | 64 | 1014.3 |
| 20260507103332 | 11 | 30 | 3.2 | 4.8 | 0.00 | 0.00 | 0.00 | 63 | 1014.1 |
| 20260507102828 | 11 | 30 | 1.6 | 4.8 | 0.00 | 0.00 | 0.00 | 64 | 1014.0 |
| 20260507102325 | 11 | 51 | 4.8 | 6.4 | 0.00 | 0.00 | 0.00 | 65 | 1014.0 |
| 20260507101822 | 11 | 51 | 0.0 | 6.4 | 0.00 | 0.00 | 0.00 | 66 | 1014.1 |
| 20260507101321 | 11 | 36 | 0.0 | 1.6 | 0.00 | 0.00 | 0.00 | 70 | 1014.1 |
| 20260507100819 | 11 | 36 | 1.6 | 1.6 | 0.00 | 0.00 | 0.00 | 71 | 1013.9 |
| 20260507100317 | 11 | 36 | 1.6 | 3.2 | 0.00 | 0.00 | 0.00 | 70 | 1014.0 |
| 20260507095815 | 11 | 36 | 3.2 | 3.2 | 0.00 | 0.00 | 0.00 | 72 | 1013.9 |
| 20260507095311 | 11 | 36 | 3.2 | 3.2 | 0.00 | 0.00 | 0.00 | 72 | 1013.7 |
| 20260507094808 | 11 | 40 | 3.2 | 6.4 | 0.00 | 0.00 | 0.00 | 71 | 1013.7 |
| 20260507094305 | 11 | 33 | 1.6 | 3.2 | 0.00 | 0.00 | 0.00 | 75 | 1013.7 |
| 20260507093801 | 11 | 33 | 1.6 | 3.2 | 0.00 | 0.00 | 0.00 | 75 | 1013.7 |
| 20260507093300 | 11 | 32 | 3.2 | 4.8 | 0.00 | 0.00 | 0.00 | 76 | 1013.5 |
| 20260507092758 | 11 | 30 | 4.8 | 6.4 | 0.00 | 0.00 | 0.00 | 75 | 1013.6 |
| 20260507092253 | 11 | 47 | 6.4 | 6.4 | 0.00 | 0.00 | 0.00 | 75 | 1013.7 |
| 20260507091750 | 11 | 40 | 4.8 | 6.4 | 0.00 | 0.00 | 0.00 | 77 | 1013.7 |
| 20260507091247 | 11 | 8 | 1.6 | 1.6 | 0.00 | 0.00 | 0.00 | 79 | 1013.9 |
| 20260507090747 | 11 | 8 | 4.8 | 4.8 | 0.00 | 0.00 | 0.00 | 77 | 1013.8 |
| 20260507090244 | 11 | 357 | 6.4 | 6.4 | 0.00 | 0.00 | 0.00 | 77 | 1013.7 |
| 20260507085741 | 11 | 357 | 3.2 | 6.4 | 0.00 | 0.00 | 0.00 | 78 | 1013.8 |
| 20260507085238 | 11 | 18 | 4.8 | 6.4 | 0.00 | 0.00 | 0.00 | 76 | 1013.7 |
| 20260507084735 | 11 | 15 | 3.2 | 6.4 | 0.00 | 0.00 | 0.00 | 77 | 1013.6 |
| 20260507084231 | 11 | 16 | 4.8 | 6.4 | 0.00 | 0.00 | 0.00 | 77 | 1013.7 |
| 20260507083729 | 11 | 24 | 3.2 | 3.2 | 0.00 | 0.00 | 0.00 | 77 | 1013.7 |
| 20260507083226 | 11 | 25 | 1.6 | 4.8 | 0.00 | 0.00 | 0.00 | 77 | 1013.6 |
| 20260507082722 | 11 | 20 | 4.8 | 6.4 | 0.00 | 0.00 | 0.00 | 76 | 1013.6 |
| 20260507082218 | 11 | 6 | 3.2 | 4.8 | 0.00 | 0.00 | 0.00 | 77 | 1013.5 |
| 20260507081715 | 11 | 4 | 1.6 | 3.2 | 0.00 | 0.00 | 0.00 | 77 | 1013.4 |
| 20260507081211 | 12 | 5 | 1.6 | 4.8 | 0.00 | 0.00 | 0.00 | 77 | 1013.3 |
| 20260507080707 | 12 | 348 | 3.2 | 4.8 | 0.00 | 0.00 | 0.00 | 77 | 1013.3 |
| 20260507080204 | 12 | 13 | 3.2 | 4.8 | 0.00 | 0.00 | 0.00 | 76 | 1013.1 |
| 20260507075659 | 12 | 354 | 3.2 | 6.4 | 0.00 | 0.00 | 0.00 | 77 | 1013.4 |
| 20260507075155 | 12 | 22 | 4.8 | 9.7 | 0.00 | 0.00 | 0.00 | 75 | 1013.1 |
| 20260507074652 | 12 | 23 | 6.4 | 9.7 | 0.00 | 0.00 | 0.00 | 76 | 1013.1 |
| 20260507074150 | 12 | 11 | 6.4 | 6.4 | 0.00 | 0.00 | 0.00 | 76 | 1012.9 |
| 20260507073647 | 12 | 15 | 4.8 | 9.7 | 0.00 | 0.00 | 0.00 | 77 | 1013.0 |
| 20260507073143 | 12 | 22 | 6.4 | 14.5 | 0.00 | 0.00 | 0.00 | 76 | 1012.8 |
| 20260507072641 | 12 | 349 | 4.8 | 9.7 | 0.00 | 0.00 | 0.00 | 77 | 1012.9 |
| 20260507072138 | 12 | 9 | 8.0 | 11.3 | 0.00 | 0.00 | 0.00 | 77 | 1012.9 |
| 20260507071635 | 12 | 22 | 6.4 | 11.3 | 0.00 | 0.00 | 0.00 | 77 | 1012.8 |
| 20260507071131 | 12 | 18 | 4.8 | 11.3 | 0.00 | 0.00 | 0.00 | 78 | 1012.7 |
| 20260507070629 | 12 | 4 | 4.8 | 9.7 | 0.00 | 0.00 | 0.00 | 79 | 1013.1 |
| 20260507070126 | 12 | 28 | 6.4 | 6.4 | 0.00 | 0.00 | 0.00 | 80 | 1013.0 |
| 20260507065622 | 12 | 359 | 4.8 | 4.8 | 0.00 | 0.00 | 0.00 | 80 | 1013.1 |
| 20260507065119 | 12 | 359 | 1.6 | 1.6 | 0.00 | 0.00 | 0.00 | 80 | 1013.2 |
| 20260507064617 | 12 | 359 | 1.6 | 1.6 | 0.00 | 0.00 | 0.00 | 79 | 1013.2 |
| 20260507064115 | 12 | 359 | 3.2 | 3.2 | 0.00 | 0.00 | 0.00 | 78 | 1013.5 |
| 20260507063612 | 12 | 358 | 3.2 | 4.8 | 0.00 | 0.00 | 0.00 | 78 | 1013.3 |
| 20260507063109 | 12 | 357 | 1.6 | 3.2 | 0.00 | 0.00 | 0.00 | 79 | 1013.3 |
| 20260507062606 | 12 | 352 | 3.2 | 6.4 | 0.00 | 0.00 | 0.00 | 78 | 1013.2 |
| 20260507062103 | 12 | 4 | 3.2 | 4.8 | 0.00 | 0.00 | 0.00 | 79 | 1013.4 |
| 20260507061601 | 12 | 338 | 3.2 | 4.8 | 0.00 | 0.00 | 0.00 | 78 | 1013.6 |
| 20260507061059 | 12 | 338 | 3.2 | 9.7 | 0.00 | 0.00 | 0.00 | 78 | 1013.5 |
| 20260507060557 | 12 | 340 | 3.2 | 4.8 | 0.00 | 0.00 | 0.00 | 78 | 1013.6 |
| 20260507060053 | 12 | 338 | 3.2 | 6.4 | 0.00 | 0.00 | 0.00 | 79 | 1013.7 |
| 20260507055548 | 12 | 10 | 6.4 | 9.7 | 0.00 | 0.00 | 0.00 | 78 | 1013.6 |
| 20260507055045 | 12 | 0 | 1.6 | 4.8 | 0.00 | 0.00 | 0.00 | 79 | 1013.6 |
| 20260507054541 | 12 | 354 | 3.2 | 4.8 | 0.00 | 0.00 | 0.00 | 80 | 1013.5 |
| 20260507054038 | 12 | 15 | 4.8 | 9.7 | 0.00 | 0.00 | 0.00 | 79 | 1013.3 |
| 20260507053536 | 12 | 3 | 6.4 | 6.4 | 0.00 | 0.00 | 0.00 | 79 | 1013.4 |
| 20260507053034 | 12 | 353 | 8.0 | 11.3 | 0.00 | 0.00 | 0.00 | 79 | 1013.1 |
| 20260507052531 | 12 | 338 | 4.8 | 11.3 | 0.00 | 0.00 | 0.00 | 79 | 1013.0 |
| 20260507052028 | 12 | 14 | 4.8 | 11.3 | 0.00 | 0.00 | 0.00 | 79 | 1013.2 |
| 20260507051526 | 12 | 17 | 6.4 | 6.4 | 0.00 | 0.00 | 0.00 | 80 | 1013.3 |
| 20260507051023 | 12 | 355 | 4.8 | 6.4 | 0.00 | 0.00 | 0.00 | 80 | 1013.3 |
| 20260507050519 | 12 | 22 | 4.8 | 9.7 | 0.00 | 0.00 | 0.00 | 80 | 1013.3 |
| 20260507050016 | 12 | 16 | 6.4 | 9.7 | 0.00 | 0.00 | 0.00 | 80 | 1013.2 |
| 20260507045512 | 12 | 12 | 4.8 | 11.3 | 0.00 | 0.00 | 0.00 | 80 | 1013.2 |
| 20260507045010 | 12 | 357 | 6.4 | 12.9 | 0.00 | 0.00 | 0.00 | 80 | 1013.3 |
| 20260507044506 | 12 | 21 | 6.4 | 12.9 | 0.00 | 0.00 | 0.00 | 81 | 1013.3 |
| 20260507044003 | 13 | 7 | 6.4 | 11.3 | 0.00 | 0.00 | 0.00 | 81 | 1013.2 |
| 20260507043459 | 13 | 26 | 14.5 | 20.9 | 0.00 | 0.00 | 0.00 | 80 | 1012.9 |
| 20260507042955 | 13 | 33 | 9.7 | 17.7 | 0.00 | 0.00 | 0.00 | 80 | 1012.6 |
| 20260507042452 | 13 | 23 | 9.7 | 14.5 | 0.00 | 0.00 | 0.00 | 81 | 1012.8 |
| 20260507041948 | 13 | 23 | 11.3 | 12.9 | 0.00 | 0.00 | 0.00 | 82 | 1013.0 |
| 20260507041445 | 13 | 8 | 9.7 | 12.9 | 0.00 | 0.00 | 0.00 | 82 | 1013.1 |
| 20260507040942 | 13 | 28 | 8.0 | 16.1 | 0.00 | 0.00 | 0.00 | 83 | 1013.2 |
| 20260507040437 | 13 | 301 | 14.5 | 16.1 | 0.00 | 0.00 | 0.00 | 83 | 1013.2 |
| 20260507035934 | 13 | 11 | 14.5 | 16.1 | 0.00 | 0.28 | 0.28 | 83 | 1013.2 |
| 20260507035430 | 13 | 357 | 8.0 | 11.3 | 0.00 | 0.28 | 0.28 | 83 | 1013.2 |
| 20260507034927 | 13 | 6 | 3.2 | 6.4 | 0.00 | 0.28 | 0.28 | 84 | 1013.1 |
| 20260507034424 | 13 | 17 | 4.8 | 9.7 | 0.00 | 0.28 | 0.28 | 84 | 1013.1 |
| 20260507033922 | 13 | 342 | 9.7 | 14.5 | 0.00 | 0.28 | 0.28 | 83 | 1013.2 |
| 20260507033420 | 13 | 339 | 12.9 | 14.5 | 0.00 | 0.28 | 0.28 | 84 | 1013.0 |
| 20260507032916 | 13 | 13 | 9.7 | 16.1 | 0.00 | 0.28 | 0.28 | 84 | 1013.1 |
| 20260507032414 | 13 | 22 | 8.0 | 14.5 | 0.00 | 0.28 | 0.28 | 84 | 1013.1 |
| 20260507031909 | 13 | 20 | 12.9 | 14.5 | 0.00 | 0.28 | 0.28 | 84 | 1013.3 |
| 20260507031406 | 13 | 27 | 6.4 | 11.3 | 0.00 | 0.28 | 0.28 | 84 | 1013.0 |
| 20260507030903 | 13 | 343 | 9.7 | 11.3 | 0.00 | 0.28 | 0.28 | 83 | 1013.2 |
| 20260507030400 | 13 | 19 | 6.4 | 16.1 | 0.00 | 0.28 | 0.28 | 83 | 1013.2 |
| 20260507025857 | 13 | 4 | 9.7 | 17.7 | 0.00 | 0.28 | 0.28 | 82 | 1013.0 |
| 20260507025354 | 13 | 31 | 8.0 | 17.7 | 0.00 | 0.28 | 0.28 | 82 | 1013.1 |
| 20260507024852 | 13 | 29 | 6.4 | 11.3 | 0.00 | 0.28 | 0.28 | 82 | 1012.8 |
| 20260507024349 | 13 | 21 | 6.4 | 12.9 | 0.00 | 0.28 | 0.28 | 82 | 1012.8 |
| 20260507023845 | 14 | 11 | 8.0 | 12.9 | 0.00 | 0.28 | 0.28 | 82 | 1012.7 |
| 20260507023342 | 14 | 22 | 11.3 | 14.5 | 0.00 | 0.28 | 0.28 | 82 | 1012.7 |
| 20260507022839 | 14 | 357 | 9.7 | 17.7 | 0.00 | 0.28 | 0.28 | 81 | 1012.9 |
| 20260507022335 | 14 | 7 | 9.7 | 17.7 | 0.00 | 0.28 | 0.28 | 81 | 1012.7 |
| 20260507021831 | 14 | 6 | 12.9 | 16.1 | 0.00 | 0.28 | 0.28 | 81 | 1012.4 |
| 20260507021327 | 14 | 17 | 6.4 | 14.5 | 0.00 | 0.28 | 0.28 | 81 | 1012.5 |
| 20260507020825 | 15 | 331 | 8.0 | 12.9 | 0.00 | 0.28 | 0.28 | 80 | 1012.7 |
| 20260507020321 | 15 | 25 | 6.4 | 11.3 | 0.00 | 0.28 | 0.28 | 81 | 1012.5 |
| 20260507015819 | 15 | 26 | 6.4 | 11.3 | 0.00 | 0.28 | 0.28 | 81 | 1012.4 |
| 20260507015316 | 15 | 24 | 6.4 | 12.9 | 0.00 | 0.28 | 0.28 | 81 | 1012.2 |
| 20260507014813 | 15 | 22 | 4.8 | 6.4 | 0.00 | 0.28 | 0.28 | 82 | 1012.3 |
| 20260507014310 | 15 | 26 | 6.4 | 9.7 | 0.00 | 0.28 | 0.28 | 81 | 1012.3 |
| 20260507013806 | 15 | 46 | 8.0 | 12.9 | 0.00 | 0.28 | 0.28 | 81 | 1012.4 |
| 20260507013303 | 15 | 27 | 4.8 | 9.7 | 0.00 | 0.28 | 0.28 | 82 | 1012.3 |
| 20260507012801 | 15 | 22 | 6.4 | 9.7 | 0.00 | 0.28 | 0.28 | 81 | 1012.4 |
| 20260507012256 | 15 | 22 | 8.0 | 9.7 | 0.00 | 0.28 | 0.28 | 79 | 1012.1 |
| 20260507011754 | 15 | 53 | 4.8 | 6.4 | 0.00 | 0.28 | 0.28 | 79 | 1012.0 |
| 20260507011250 | 15 | 38 | 8.0 | 14.5 | 0.00 | 0.28 | 0.28 | 80 | 1012.1 |
| 20260507010750 | 16 | 25 | 6.4 | 6.4 | 0.00 | 0.28 | 0.28 | 81 | 1011.8 |
| 20260507010246 | 16 | 30 | 6.4 | 9.7 | 0.00 | 0.28 | 0.28 | 79 | 1011.7 |
| 20260507005744 | 16 | 7 | 9.7 | 17.7 | 0.00 | 0.28 | 0.28 | 79 | 1012.1 |
| 20260507005240 | 16 | 22 | 6.4 | 12.9 | 0.00 | 0.28 | 0.28 | 79 | 1012.0 |
| 20260507004736 | 16 | 339 | 8.0 | 12.9 | 0.00 | 0.28 | 0.28 | 80 | 1012.4 |
| 20260507004235 | 16 | 19 | 6.4 | 12.9 | 0.00 | 0.28 | 0.28 | 80 | 1012.5 |
| 20260507003730 | 16 | 19 | 6.4 | 11.3 | 0.00 | 0.28 | 0.28 | 81 | 1012.3 |
| 20260507003226 | 16 | 11 | 6.4 | 11.3 | 0.00 | 0.28 | 0.28 | 80 | 1012.1 |
| 20260507002722 | 16 | 32 | 9.7 | 12.9 | 0.00 | 0.28 | 0.28 | 81 | 1012.0 |
| 20260507002218 | 16 | 33 | 6.4 | 9.7 | 0.00 | 0.28 | 0.28 | 82 | 1012.0 |
| 20260507001715 | 16 | 359 | 6.4 | 12.9 | 0.00 | 0.28 | 0.28 | 82 | 1012.2 |
| 20260507001212 | 16 | 35 | 6.4 | 12.9 | 0.00 | 0.28 | 0.28 | 84 | 1011.9 |
| 20260507000708 | 16 | 3 | 6.4 | 12.9 | 0.00 | 0.28 | 0.28 | 84 | 1011.9 |
| 20260507000205 | 17 | 23 | 4.8 | 9.7 | 0.00 | 0.28 | 0.28 | 88 | 1011.8 |
| 20260506235702 | 17 | 8 | 4.8 | 11.3 | 0.00 | 0.28 | 0.28 | 87 | 1011.5 |
| 20260506235157 | 17 | 20 | 6.4 | 11.3 | 0.00 | 0.28 | 0.28 | 87 | 1011.3 |
| 20260506234654 | 17 | 44 | 8.0 | 11.3 | 0.00 | 0.28 | 0.28 | 86 | 1011.4 |
| 20260506234151 | 17 | 32 | 9.7 | 11.3 | 0.00 | 0.28 | 0.28 | 87 | 1011.5 |
| 20260506233648 | 17 | 5 | 6.4 | 9.7 | 0.00 | 0.28 | 0.28 | 87 | 1011.4 |
| 20260506233145 | 17 | 26 | 4.8 | 4.8 | 0.00 | 0.28 | 0.28 | 87 | 1010.8 |
| 20260506232641 | 17 | 26 | 8.0 | 11.3 | 0.00 | 0.28 | 0.28 | 86 | 1011.0 |
| 20260506232137 | 17 | 3 | 3.2 | 9.7 | 0.00 | 0.28 | 0.28 | 86 | 1010.7 |
| 20260506231634 | 18 | 26 | 8.0 | 11.3 | 0.00 | 0.28 | 0.28 | 86 | 1010.8 |
| 20260506231133 | 18 | 20 | 4.8 | 4.8 | 0.00 | 0.28 | 0.28 | 86 | 1010.4 |
| 20260506230629 | 18 | 10 | 8.0 | 11.3 | 0.00 | 0.28 | 0.28 | 85 | 1010.7 |
| 20260506230126 | 18 | 11 | 4.8 | 6.4 | 0.00 | 0.28 | 0.28 | 85 | 1010.6 |
| 20260506225622 | 18 | 324 | 4.8 | 14.5 | 0.00 | 0.28 | 0.28 | 83 | 1010.3 |
| 20260506225119 | 18 | 354 | 1.6 | 9.7 | 0.00 | 0.28 | 0.28 | 84 | 1010.4 |
| 20260506224616 | 18 | 1 | 4.8 | 9.7 | 0.00 | 0.28 | 0.28 | 85 | 1010.1 |
| 20260506224112 | 18 | 354 | 1.6 | 4.8 | 0.00 | 0.28 | 0.28 | 88 | 1010.3 |
| 20260506223608 | 18 | 12 | 6.4 | 11.3 | 0.00 | 0.28 | 0.28 | 88 | 1010.6 |
| 20260506223105 | 18 | 9 | 6.4 | 14.5 | 0.00 | 0.28 | 0.28 | 89 | 1010.6 |
| 20260506222602 | 19 | 26 | 9.7 | 12.9 | 0.00 | 0.28 | 0.28 | 88 | 1010.3 |
| 20260506222058 | 19 | 16 | 9.7 | 12.9 | 0.00 | 0.28 | 0.28 | 87 | 1010.1 |
| 20260506221556 | 19 | 16 | 9.7 | 12.9 | 0.00 | 0.28 | 0.28 | 89 | 1010.0 |
| 20260506221054 | 19 | 14 | 8.0 | 11.3 | 0.00 | 0.28 | 0.28 | 90 | 1010.2 |
| 20260506220549 | 19 | 24 | 9.7 | 16.1 | 0.00 | 0.28 | 0.28 | 89 | 1009.8 |
| 20260506220045 | 20 | 267 | 1.6 | 3.2 | 0.00 | 0.28 | 0.28 | 85 | 1009.9 |
| 20260506215542 | 20 | 266 | 1.6 | 4.8 | 0.00 | 0.28 | 0.28 | 84 | 1009.7 |
| 20260506215038 | 20 | 216 | 4.8 | 4.8 | 0.00 | 0.28 | 0.28 | 83 | 1009.5 |
| 20260506214535 | 20 | 216 | 3.2 | 4.8 | 0.00 | 0.28 | 0.28 | 82 | 1009.6 |
| 20260506214032 | 20 | 216 | 3.2 | 3.2 | 0.00 | 0.28 | 0.28 | 83 | 1009.7 |
| 20260506213530 | 20 | 216 | 0.0 | 0.0 | 0.00 | 0.28 | 0.28 | 85 | 1009.6 |
| 20260506213027 | 20 | 216 | 0.0 | 0.0 | 0.00 | 0.28 | 0.28 | 85 | 1009.8 |
| 20260506212524 | 20 | 216 | 0.0 | 1.6 | 0.00 | 0.28 | 0.28 | 84 | 1009.6 |
| 20260506212019 | 20 | 216 | 1.6 | 1.6 | 0.00 | 0.28 | 0.28 | 86 | 1009.7 |
| 20260506211515 | 20 | 216 | 0.0 | 0.0 | 0.00 | 0.28 | 0.28 | 85 | 1009.5 |
| 20260506211013 | 20 | 211 | 6.4 | 9.7 | 0.00 | 0.28 | 0.28 | 85 | 1009.3 |
| 20260506210508 | 20 | 213 | 3.2 | 4.8 | 0.00 | 0.28 | 0.28 | 85 | 1009.1 |
| 20260506210005 | 20 | 186 | 6.4 | 6.4 | 0.00 | 0.28 | 0.28 | 86 | 1008.9 |
| 20260506205502 | 20 | 188 | 6.4 | 6.4 | 0.00 | 0.28 | 0.28 | 87 | 1009.0 |
| 20260506204957 | 20 | 190 | 6.4 | 6.4 | 0.00 | 0.28 | 0.28 | 86 | 1009.1 |